Weather History for Joplin, MO

Change the Weather History Date:

Tuesday, January 22, 2013

  Actual Average Record
Temperature  
Mean Temperature 29 °F 35 °F  
Max Temperature 40 °F 45 °F 73 °F (1967)
Min Temperature 18 °F 25 °F 3 °F (1963)
Degree Days  
Heating Degree Days 36 30  
Month to date heating degree days 658 660  
Since 1 July heating degree days 2155 2277  
Cooling Degree Days 0 0  
Month to date cooling degree days 0 0  
Year to date cooling degree days 0 0  
Moisture  
Dew Point 17 °F    
Average Humidity 64    
Maximum Humidity 80    
Minimum Humidity 48    
Precipitation  
Precipitation 0.00 in 0.06 in 0.50 in (1982)
Month to date precipitation 0.86 1.45  
Year to date precipitation 0.86 1.45  
Snow  
Snow 0.00 in - - ()
Month to date snowfall 0.0  
Snow Depth 0.00 in    
Sea Level Pressure  
Sea Level Pressure 30.31 in    
Wind  
Wind Speed 5 mph (East)    
Max Wind Speed 15 mph    
Max Gust Speed 18 mph    
Visibility 10 miles    
Events      
T = Trace of Precipitation, MM = Missing Value Source: NWS Daily Summary

Daily Weather History Graph

Daily Weather History Graph

Search for Another Location

Airport:

Trip Planner

Search our weather history database for the weather conditions in past years. The results will help you decide how hot, cold, wet, or windy it might be!

Date:

Astronomy

Jan. 22, 2013 Rise Set
Actual Time 7:27 AM CST 5:32 PM CST
Civil Twilight 6:59 AM CST 6:00 PM CST
Nautical Twilight 6:27 AM CST 6:31 PM CST
Astronomical Twilight 5:56 AM CST 7:02 PM CST
Moon 1:56 PM CST 3:48 AM CST
Length of Visible Light 11h 00m
Length of Day
10h 04m
Waxing Gibbous, 83% of the Moon is Illuminated
Jan 22
Waxing Gibbous
Jan 26
Full
Feb 3
Last Quarter
Feb 10
New
Feb 17
First Quarter

Hourly Weather History & Observations

Time (CST) Temp. Windchill Dew Point Humidity Pressure Visibility Wind Dir Wind Speed Gust Speed Precip Events Conditions
12:53 AM 19.9 °F - 12.0 °F 71% 30.37 in 10.0 mi Calm Calm - N/A   Clear
1:53 AM 18.0 °F 12.7 °F 12.9 °F 81% 30.35 in 10.0 mi East 3.5 mph - N/A   Clear
2:53 AM 21.9 °F 15.7 °F 12.9 °F 68% 30.35 in 10.0 mi East 4.6 mph - N/A   Clear
3:53 AM 23.0 °F 18.4 °F 12.9 °F 65% 30.34 in 10.0 mi East 3.5 mph - N/A   Partly Cloudy
4:53 AM 21.9 °F 17.2 °F 12.9 °F 68% 30.34 in 10.0 mi ENE 3.5 mph - N/A   Clear
5:53 AM 19.9 °F 14.9 °F 14.0 °F 78% 30.35 in 10.0 mi ENE 3.5 mph - N/A   Clear
6:53 AM 19.9 °F 13.4 °F 12.9 °F 74% 30.36 in 10.0 mi East 4.6 mph - N/A   Clear
7:53 AM 19.9 °F 13.4 °F 12.9 °F 74% 30.37 in 10.0 mi ENE 4.6 mph - N/A   Clear
8:53 AM 24.1 °F 12.5 °F 14.0 °F 65% 30.34 in 10.0 mi East 12.7 mph - N/A   Clear
9:53 AM 28.0 °F 20.8 °F 17.1 °F 63% 30.34 in 10.0 mi ESE 6.9 mph - N/A   Overcast
10:53 AM 28.9 °F 21.9 °F 16.0 °F 58% 30.38 in 10.0 mi East 6.9 mph - N/A   Overcast
11:53 AM 30.9 °F 24.3 °F 17.1 °F 57% 30.36 in 10.0 mi East 6.9 mph - N/A   Overcast
12:53 PM 33.1 °F 27.7 °F 18.0 °F 54% 30.32 in 10.0 mi East 5.8 mph - N/A   Overcast
1:53 PM 36.0 °F 29.6 °F 19.0 °F 50% 30.30 in 10.0 mi ENE 8.1 mph - N/A   Overcast
2:53 PM 37.9 °F 33.5 °F 21.0 °F 51% 30.27 in 10.0 mi SE 5.8 mph - N/A   Overcast
3:53 PM 39.0 °F 34.8 °F 21.0 °F 49% 30.25 in 10.0 mi SE 5.8 mph - N/A   Clear
4:53 PM 37.9 °F 32.7 °F 21.0 °F 51% 30.24 in 10.0 mi ESE 6.9 mph - N/A   Clear
5:53 PM 33.1 °F 28.7 °F 21.0 °F 61% 30.25 in 10.0 mi East 4.6 mph - N/A   Clear
6:53 PM 32.0 °F 27.5 °F 19.9 °F 61% 30.27 in 10.0 mi East 4.6 mph - N/A   Clear
7:53 PM 28.9 °F 23.9 °F 19.0 °F 67% 30.26 in 10.0 mi ESE 4.6 mph - N/A   Clear
8:53 PM 28.0 °F 22.8 °F 19.0 °F 69% 30.27 in 10.0 mi East 4.6 mph - N/A   Clear
9:53 PM 27.0 °F 23.0 °F 18.0 °F 69% 30.28 in 10.0 mi East 3.5 mph - N/A   Clear
10:53 PM 26.1 °F - 18.0 °F 71% 30.29 in 10.0 mi Calm Calm - N/A   Clear
11:53 PM 25.0 °F 20.7 °F 18.0 °F 75% 30.29 in 10.0 mi East 3.5 mph - N/A   Clear